OSCAR 29 (18362 NORAD) Tracking and Keplerian Element Data

This shows tracking and keplerian element data for the satellite.

Feedback or suggestion? Click here.




ElementValue
Catalog18362
NameOSCAR 29
Epoch Orbit83316
Epoch Day34.64953836
Epoch Year2025
RAAN68.2136
Inclination90.3643
Eccentricity0.0107302
Argument of Perigee61.4824
Mean Anonmoly60.1096
Mean Motion13.44382527
Decay Rate1.12E-06
L11 18362U 87080B 25034.64953836 .00000112 00000+0 17056-3 0 9996
L22 18362 90.3643 68.2136 0107302 61.4824 60.1096 13.44382527833163



Live tracking and technical data element details for OSCAR 29 (NORAD 18362). OSCAR 29 can be tracked NOW for your location showing map with azimuth and elevation plus other details from your city location.







IsCatalogInMostPopularTable: catalog: 18362, numindb: 372
Update: records affected: 1



GetName: 18362 OSCAR 29

Hit Count: updated at: Thu, 15 May 2025 19:14:39 GMT